Tracking 31027 objects as of 19-Jul-2025
HD Live streaming from Space Station
objects crossing your sky now

STARLINK-31310

Track STARLINK-31310 now!
10-day predictions
STARLINK-31310 is classified as:


NORAD ID: 59092
Int'l Code: 2024-041U
Perigee: 489.1 km
Apogee: 491.2 km
Inclination: 43.0 °
Period: 94.3 minutes
Semi major axis: 6861 km
RCS: Unknown
Launch date: February 29, 2024
Source: United States (US)
Launch site: AIR FORCE EASTERN TEST RANGE (AFETR)
Your satellite tracking list
STARLINK-11488
Track 1 satellite(s)




NASA's NSSDC Master Catalog

Two Line Element Set (TLE):
1 59092U 24041U   25199.06438206  .00001193  00000-0  52878-4 0  9999
2 59092  43.0021 196.1672 0001528 277.2544  82.8134 15.27578168 78388
Source of the keplerian elements: AFSPC